QPF
0.01 0.01 0.01 0.01 0.01 0.01 0.01 0.01 0.01 0.01 0.01 0.01 0.01 0.01 0.01 0.00 0.00 0.00 0.00 0.00 0.00 0.00 0.00 0.00 0.00 0.00 0.00 0.00 0.00 0.00 0.01 0.02 0.02 0.02 0.03 0.03 0.04 0.03 0.03 0.03 0.03 0.04 0.03 0.03
0.00 0.01 0.01 0.01 0.01 0.01 0.00 0.00 0.00 0.01 0.01 0.01 0.01 0.01 0.01 0.00 0.00 0.00 0.00 0.00 0.00 0.00 0.00 0.00 0.00 0.00 0.00 0.00 0.00 0.00 0.01 0.02 0.04 0.04 0.03 0.03 0.03 0.04 0.05 0.04 0.03 0.03 0.04 0.05
0.01 0.00 0.01 0.01 0.00 0.00 0.00 0.00 0.00 0.00 0.01 0.00 0.00 0.00 0.00 0.00 0.00 0.00 0.00 0.00 0.00 0.00 0.00 0.00 0.00 0.00 0.00 0.00 0.00 0.00 0.01 0.01 0.02 0.02 0.03 0.02 0.02 0.03 0.04 0.04 0.04 0.05 0.04 0.05
0.01 0.01 0.01 0.01 0.01 0.00 0.00 0.00 0.00 0.00 0.00 0.00 0.00 0.00 0.00 0.00 0.00 0.00 0.00 0.00 0.00 0.00 0.00 0.00 0.00 0.00 0.00 0.00 0.00 0.00 0.01 0.01 0.01 0.02 0.03 0.04 0.04 0.04 0.04 0.05 0.05 0.06 0.06 0.05
0.02 0.03 0.03 0.03 0.01 0.00 0.00 0.01 0.00 0.00 0.00 0.00 0.00 0.00 0.00 0.00 0.00 0.01 0.00 0.01 0.01 0.00 0.00 0.00 0.00 0.00 0.00 0.00 0.00 0.01 0.01 0.01 0.01 0.02 0.03 0.05 0.04 0.04 0.04 0.05 0.05 0.05 0.06 0.06
0.02 0.03 0.03 0.03 0.02 0.00 0.00 0.01 0.00 0.00 0.00 0.00 0.00 0.00 0.00 0.00 0.01 0.01 0.00 0.02 0.03 0.00 0.00 0.00 0.00 0.00 0.00 0.00 0.01 0.01 0.01 0.01 0.01 0.02 0.03 0.03 0.03 0.04 0.06 0.05 0.05 0.06 0.06 0.07
0.02 0.03 0.02 0.01 0.01 0.01 0.01 0.02 0.01 0.00 0.00 0.00 0.00 0.00 0.00 0.00 0.00 0.00 0.00 0.00 0.00 0.00 0.00 0.00 0.00 0.00 0.00 0.01 0.01 0.01 0.01 0.02 0.02 0.02 0.02 0.03 0.03 0.04 0.05 0.05 0.04 0.05 0.06 0.09
0.02 0.02 0.02 0.01 0.00 0.00 0.01 0.01 0.01 0.00 0.00 0.00 0.00 0.00 0.00 0.01 0.00 0.00 0.00 0.00 0.00 0.00 0.00 0.00 0.00 0.00 0.01 0.01 0.01 0.01 0.01 0.02 0.03 0.03 0.03 0.04 0.04 0.04 0.04 0.04 0.04 0.06 0.08 0.10
0.01 0.02 0.02 0.01 0.00 0.01 0.01 0.01 0.01 0.00 0.00 0.00 0.00 0.00 0.01 0.03 0.02 0.01 0.01 0.01 0.01 0.01 0.00 0.00 0.00 0.01 0.02 0.01 0.01 0.01 0.02 0.02 0.03 0.04 0.05 0.06 0.05 0.05 0.06 0.06 0.05 0.04 0.05 0.06
0.01 0.01 0.00 0.00 0.00 0.01 0.01 0.01 0.01 0.02 0.01 0.01 0.01 0.01 0.02 0.04 0.04 0.02 0.01 0.01 0.01 0.01 0.01 0.01 0.01 0.01 0.02 0.02 0.02 0.02 0.02 0.03 0.03 0.04 0.05 0.06 0.07 0.05 0.05 0.05 0.04 0.04 0.03 0.03
0.02 0.02 0.01 0.01 0.00 0.01 0.01 0.01 0.01 0.02 0.02 0.02 0.02 0.01 0.03 0.04 0.02 0.01 0.01 0.01 0.02 0.02 0.03 0.02 0.02 0.02 0.03 0.03 0.03 0.02 0.02 0.02 0.03 0.03 0.04 0.05 0.06 0.05 0.04 0.05 0.04 0.04 0.04 0.03
0.02 0.03 0.03 0.02 0.01 0.01 0.01 0.02 0.03 0.03 0.03 0.02 0.02 0.02 0.02 0.03 0.01 0.01 0.00 0.01 0.01 0.02 0.03 0.02 0.02 0.02 0.02 0.02 0.02 0.02 0.02 0.02 0.03 0.03 0.04 0.06 0.07 0.06 0.06 0.06 0.07 0.05 0.04 0.03
0.02 0.01 0.02 0.02 0.01 0.01 0.00 0.01 0.02 0.05 0.04 0.02 0.02 0.02 0.02 0.02 0.01 0.01 0.01 0.01 0.02 0.02 0.02 0.01 0.02 0.02 0.02 0.02 0.02 0.03 0.03 0.03 0.03 0.03 0.04 0.05 0.05 0.07 0.09 0.09 0.07 0.06 0.06 0.04
0.01 0.01 0.01 0.01 0.02 0.01 0.01 0.01 0.01 0.02 0.02 0.01 0.01 0.02 0.02 0.02 0.02 0.01 0.02 0.02 0.02 0.02 0.02 0.01 0.01 0.01 0.02 0.01 0.02 0.03 0.03 0.03 0.03 0.03 0.02 0.04 0.04 0.05 0.05 0.07 0.07 0.05 0.05 0.04
0.03 0.02 0.03 0.03 0.03 0.03 0.02 0.01 0.01 0.02 0.01 0.01 0.01 0.02 0.03 0.03 0.02 0.01 0.01 0.01 0.01 0.02 0.01 0.01 0.01 0.02 0.02 0.02 0.03 0.03 0.03 0.04 0.03 0.03 0.03 0.03 0.04 0.04 0.04 0.04 0.05 0.05 0.04 0.04
0.05 0.06 0.06 0.06 0.05 0.03 0.02 0.02 0.03 0.03 0.01 0.02 0.02 0.03 0.04 0.03 0.02 0.02 0.01 0.01 0.01 0.02 0.02 0.02 0.02 0.02 0.02 0.02 0.03 0.03 0.04 0.03 0.02 0.02 0.03 0.04 0.04 0.04 0.04 0.04 0.03 0.03 0.04 0.04
0.08 0.08 0.06 0.04 0.03 0.03 0.03 0.03 0.04 0.03 0.01 0.02 0.02 0.02 0.04 0.03 0.03 0.02 0.02 0.02 0.02 0.02 0.02 0.03 0.03 0.02 0.02 0.02 0.02 0.02 0.02 0.02 0.02 0.01 0.02 0.02 0.02 0.03 0.03 0.04 0.04 0.04 0.04 0.03
0.10 0.08 0.06 0.05 0.04 0.04 0.03 0.03 0.04 0.03 0.02 0.02 0.02 0.03 0.05 0.04 0.03 0.03 0.02 0.02 0.02 0.02 0.02 0.02 0.02 0.02 0.02 0.02 0.02 0.02 0.01 0.01 0.02 0.02 0.02 0.02 0.02 0.03 0.03 0.03 0.04 0.05 0.05 0.04
0.06 0.05 0.05 0.05 0.05 0.05 0.04 0.04 0.03 0.02 0.02 0.02 0.02 0.04 0.06 0.05 0.04 0.03 0.02 0.01 0.02 0.02 0.01 0.01 0.01 0.01 0.02 0.02 0.02 0.02 0.01 0.01 0.01 0.02 0.03 0.03 0.03 0.02 0.03 0.03 0.03 0.04 0.05 0.05
0.02 0.03 0.03 0.04 0.04 0.04 0.03 0.04 0.03 0.02 0.02 0.01 0.02 0.04 0.07 0.05 0.04 0.03 0.03 0.03 0.02 0.01 0.01 0.01 0.01 0.01 0.02 0.03 0.02 0.02 0.02 0.02 0.02 0.03 0.04 0.04 0.03 0.03 0.03 0.02 0.02 0.03 0.03 0.03
0.02 0.03 0.03 0.03 0.03 0.03 0.04 0.03 0.03 0.02 0.01 0.02 0.02 0.03 0.04 0.04 0.04 0.04 0.03 0.03 0.03 0.02 0.01 0.01 0.01 0.02 0.02 0.02 0.02 0.02 0.03 0.03 0.03 0.03 0.03 0.03 0.03 0.03 0.03 0.02 0.02 0.03 0.03 0.03
0.02 0.02 0.03 0.03 0.04 0.04 0.03 0.03 0.02 0.02 0.02 0.03 0.03 0.02 0.04 0.05 0.06 0.05 0.04 0.04 0.04 0.03 0.02 0.02 0.02 0.02 0.02 0.01 0.01 0.03 0.03 0.02 0.02 0.03 0.03 0.03 0.04 0.04 0.04 0.05 0.04 0.04 0.04 0.04
0.03 0.03 0.04 0.05 0.05 0.04 0.03 0.03 0.03 0.03 0.04 0.05 0.04 0.03 0.03 0.06 0.06 0.08 0.06 0.04 0.03 0.03 0.02 0.02 0.01 0.01 0.01 0.01 0.02 0.02 0.01 0.01 0.02 0.02 0.03 0.04 0.04 0.04 0.04 0.04 0.04 0.04 0.04 0.05
0.04 0.04 0.05 0.06 0.06 0.06 0.05 0.04 0.04 0.05 0.05 0.06 0.04 0.03 0.03 0.06 0.08 0.09 0.10 0.08 0.05 0.03 0.01 0.01 0.01 0.00 0.01 0.01 0.01 0.01 0.01 0.02 0.02 0.02 0.02 0.02 0.02 0.02 0.02 0.02 0.03 0.03 0.03 0.03
0.06 0.07 0.07 0.07 0.06 0.06 0.05 0.05 0.06 0.06 0.05 0.05 0.03 0.03 0.03 0.04 0.05 0.05 0.07 0.08 0.07 0.05 0.03 0.01 0.01 0.00 0.01 0.01 0.00 0.01 0.01 0.01 0.01 0.01 0.01 0.01 0.01 0.01 0.01 0.01 0.02 0.02 0.02 0.02
0.06 0.06 0.06 0.05 0.05 0.04 0.03 0.03 0.05 0.06 0.05 0.04 0.03 0.03 0.03 0.03 0.04 0.05 0.04 0.06 0.07 0.05 0.03 0.02 0.01 0.01 0.01 0.00 0.01 0.01 0.01 0.01 0.01 0.01 0.01 0.01 0.02 0.02 0.02 0.02 0.02 0.03 0.03 0.03
0.04 0.05 0.06 0.05 0.04 0.03 0.03 0.04 0.05 0.06 0.06 0.04 0.02 0.03 0.03 0.04 0.04 0.04 0.04 0.03 0.04 0.04 0.03 0.02 0.01 0.01 0.01 0.01 0.02 0.01 0.01 0.01 0.01 0.01 0.02 0.02 0.03 0.03 0.03 0.03 0.03 0.03 0.03 0.03
MSLP
1005.94 1006.61 1007.09 1007.35 1007.39 1007.21 1006.86 1006.39 1005.86 1005.33 1004.86 1004.51 1004.32 1004.32 1004.52 1004.90 1005.43 1006.09 1006.82 1007.58 1008.33 1009.04 1009.70 1010.30 1010.84 1011.35 1011.81 1012.25 1012.66 1013.04 1013.38 1013.66 1013.90 1014.08 1014.21 1014.31 1014.40 1014.49 1014.60 1014.73 1014.87 1015.02 1015.15 1015.23
1006.39 1006.99 1007.32 1007.39 1007.18 1006.74 1006.17 1005.52 1004.90 1004.38 1004.02 1003.86 1003.93 1004.20 1004.65 1005.24 1005.93 1006.65 1007.37 1008.07 1008.72 1009.32 1009.89 1010.44 1010.98 1011.53 1012.08 1012.63 1013.16 1013.64 1014.07 1014.42 1014.67 1014.85 1014.96 1015.01 1015.05 1015.10 1015.16 1015.26 1015.39 1015.53 1015.66 1015.76
1006.86 1007.35 1007.52 1007.36 1006.91 1006.23 1005.43 1004.63 1003.92 1003.40 1003.13 1003.13 1003.41 1003.92 1004.60 1005.39 1006.20 1006.99 1007.72 1008.38 1008.95 1009.48 1009.98 1010.50 1011.04 1011.63 1012.27 1012.92 1013.56 1014.15 1014.66 1015.07 1015.36 1015.53 1015.61 1015.63 1015.62 1015.61 1015.63 1015.70 1015.79 1015.92 1016.05 1016.15
1007.20 1007.54 1007.54 1007.17 1006.49 1005.60 1004.61 1003.67 1002.89 1002.37 1002.17 1002.30 1002.76 1003.47 1004.35 1005.30 1006.25 1007.13 1007.89 1008.54 1009.09 1009.58 1010.05 1010.55 1011.11 1011.74 1012.43 1013.16 1013.89 1014.56 1015.14 1015.60 1015.91 1016.10 1016.16 1016.16 1016.11 1016.07 1016.06 1016.09 1016.17 1016.28 1016.40 1016.51
1007.21 1007.39 1007.21 1006.67 1005.81 1004.76 1003.64 1002.61 1001.78 1001.28 1001.15 1001.40 1002.01 1002.88 1003.93 1005.04 1006.12 1007.10 1007.93 1008.62 1009.19 1009.68 1010.15 1010.66 1011.24 1011.90 1012.63 1013.41 1014.18 1014.91 1015.52 1016.01 1016.34 1016.53 1016.60 1016.59 1016.54 1016.50 1016.48 1016.51 1016.59 1016.70 1016.83 1016.93
1006.71 1006.74 1006.41 1005.74 1004.78 1003.64 1002.48 1001.42 1000.62 1000.16 1000.11 1000.47 1001.20 1002.22 1003.41 1004.66 1005.87 1006.96 1007.89 1008.66 1009.29 1009.83 1010.34 1010.87 1011.47 1012.14 1012.89 1013.68 1014.46 1015.18 1015.81 1016.30 1016.64 1016.85 1016.94 1016.95 1016.93 1016.92 1016.93 1017.00 1017.10 1017.23 1017.37 1017.48
1005.63 1005.51 1005.08 1004.35 1003.37 1002.25 1001.13 1000.15 999.42 999.07 999.12 999.59 1000.44 1001.58 1002.88 1004.26 1005.59 1006.79 1007.84 1008.71 1009.42 1010.04 1010.61 1011.18 1011.80 1012.48 1013.21 1013.97 1014.72 1015.42 1016.02 1016.50 1016.85 1017.07 1017.20 1017.26 1017.30 1017.35 1017.43 1017.56 1017.72 1017.90 1018.06 1018.18
1003.97 1003.74 1003.27 1002.55 1001.65 1000.66 999.68 998.86 998.30 998.09 998.28 998.87 999.83 1001.06 1002.46 1003.92 1005.35 1006.66 1007.82 1008.79 1009.62 1010.32 1010.96 1011.58 1012.21 1012.88 1013.58 1014.29 1014.98 1015.62 1016.18 1016.63 1016.98 1017.22 1017.40 1017.53 1017.65 1017.79 1017.97 1018.18 1018.41 1018.64 1018.84 1018.98
1001.91 1001.60 1001.14 1000.53 999.79 999.01 998.27 997.69 997.36 997.35 997.70 998.42 999.47 1000.77 1002.23 1003.75 1005.24 1006.63 1007.88 1008.95 1009.87 1010.66 1011.37 1012.03 1012.68 1013.33 1013.98 1014.63 1015.25 1015.82 1016.32 1016.74 1017.07 1017.34 1017.57 1017.78 1017.99 1018.23 1018.50 1018.80 1019.10 1019.39 1019.63 1019.79
999.70 999.36 998.97 998.51 998.00 997.50 997.07 996.79 996.72 996.94 997.47 998.31 999.44 1000.78 1002.27 1003.81 1005.33 1006.76 1008.05 1009.20 1010.19 1011.06 1011.82 1012.52 1013.17 1013.80 1014.41 1014.99 1015.53 1016.03 1016.47 1016.85 1017.18 1017.47 1017.74 1018.01 1018.31 1018.63 1018.99 1019.37 1019.73 1020.07 1020.34 1020.51
997.66 997.32 997.03 996.76 996.52 996.33 996.22 996.26 996.48 996.94 997.64 998.59 999.78 1001.14 1002.61 1004.13 1005.63 1007.06 1008.37 1009.55 1010.59 1011.50 1012.30 1013.02 1013.68 1014.28 1014.85 1015.37 1015.84 1016.27 1016.66 1017.00 1017.32 1017.62 1017.92 1018.25 1018.61 1019.00 1019.41 1019.83 1020.24 1020.59 1020.87 1021.04
996.07 995.76 995.58 995.50 995.52 995.62 995.83 996.17 996.66 997.33 998.19 999.24 1000.46 1001.81 1003.24 1004.71 1006.16 1007.54 1008.84 1010.01 1011.06 1011.99 1012.81 1013.54 1014.19 1014.77 1015.30 1015.77 1016.19 1016.56 1016.91 1017.22 1017.52 1017.82 1018.14 1018.50 1018.88 1019.30 1019.74 1020.18 1020.58 1020.93 1021.19 1021.35
995.07 994.80 994.72 994.81 995.04 995.40 995.87 996.47 997.18 998.03 999.02 1000.13 1001.37 1002.69 1004.07 1005.47 1006.85 1008.17 1009.42 1010.56 1011.59 1012.52 1013.34 1014.06 1014.70 1015.26 1015.75 1016.18 1016.56 1016.90 1017.20 1017.49 1017.78 1018.07 1018.40 1018.75 1019.15 1019.56 1019.99 1020.41 1020.79 1021.11 1021.34 1021.47
994.66 994.43 994.43 994.64 995.04 995.58 996.25 997.03 997.92 998.90 999.98 1001.14 1002.38 1003.68 1005.00 1006.33 1007.63 1008.89 1010.07 1011.17 1012.17 1013.07 1013.87 1014.58 1015.20 1015.73 1016.20 1016.60 1016.95 1017.25 1017.53 1017.80 1018.07 1018.36 1018.68 1019.02 1019.40 1019.79 1020.19 1020.57 1020.91 1021.19 1021.38 1021.48
994.72 994.51 994.56 994.85 995.34 996.00 996.80 997.70 998.70 999.78 1000.92 1002.12 1003.36 1004.63 1005.91 1007.18 1008.42 1009.62 1010.74 1011.79 1012.75 1013.62 1014.39 1015.07 1015.66 1016.17 1016.61 1016.98 1017.31 1017.60 1017.86 1018.12 1018.39 1018.66 1018.97 1019.30 1019.64 1020.00 1020.36 1020.70 1020.99 1021.22 1021.38 1021.45
995.00 994.82 994.91 995.23 995.77 996.49 997.35 998.33 999.39 1000.52 1001.71 1002.94 1004.19 1005.45 1006.71 1007.95 1009.15 1010.30 1011.38 1012.39 1013.30 1014.13 1014.86 1015.51 1016.07 1016.55 1016.96 1017.31 1017.62 1017.90 1018.16 1018.41 1018.67 1018.95 1019.24 1019.55 1019.88 1020.21 1020.53 1020.82 1021.08 1021.28 1021.40 1021.46
995.29 995.15 995.26 995.60 996.16 996.91 997.80 998.80 999.90 1001.07 1002.30 1003.55 1004.83 1006.10 1007.36 1008.59 1009.77 1010.90 1011.95 1012.91 1013.79 1014.58 1015.27 1015.87 1016.40 1016.85 1017.23 1017.57 1017.86 1018.14 1018.40 1018.65 1018.91 1019.19 1019.48 1019.78 1020.09 1020.40 1020.69 1020.96 1021.19 1021.36 1021.48 1021.52
995.41 995.33 995.49 995.86 996.44 997.19 998.09 999.12 1000.24 1001.44 1002.69 1003.98 1005.28 1006.58 1007.86 1009.10 1010.28 1011.39 1012.42 1013.36 1014.20 1014.94 1015.59 1016.16 1016.64 1017.06 1017.42 1017.74 1018.03 1018.30 1018.56 1018.82 1019.09 1019.37 1019.66 1019.96 1020.26 1020.56 1020.83 1021.09 1021.30 1021.47 1021.58 1021.63
995.31 995.33 995.57 996.00 996.61 997.39 998.31 999.35 1000.49 1001.71 1002.99 1004.31 1005.64 1006.97 1008.27 1009.51 1010.70 1011.80 1012.82 1013.72 1014.53 1015.24 1015.85 1016.37 1016.82 1017.21 1017.55 1017.86 1018.14 1018.41 1018.67 1018.94 1019.21 1019.50 1019.79 1020.08 1020.38 1020.66 1020.93 1021.18 1021.39 1021.55 1021.66 1021.72
995.07 995.25 995.60 996.12 996.79 997.62 998.57 999.63 1000.79 1002.03 1003.33 1004.67 1006.02 1007.35 1008.66 1009.91 1011.09 1012.17 1013.16 1014.04 1014.81 1015.48 1016.06 1016.55 1016.97 1017.34 1017.66 1017.95 1018.23 1018.50 1018.76 1019.03 1019.31 1019.59 1019.87 1020.16 1020.44 1020.71 1020.97 1021.20 1021.40 1021.56 1021.68 1021.74
994.86 995.22 995.73 996.37 997.13 998.02 999.01 1000.10 1001.28 1002.53 1003.83 1005.16 1006.50 1007.83 1009.11 1010.34 1011.49 1012.54 1013.50 1014.34 1015.07 1015.71 1016.25 1016.72 1017.12 1017.47 1017.79 1018.08 1018.35 1018.62 1018.88 1019.15 1019.41 1019.68 1019.94 1020.20 1020.46 1020.71 1020.94 1021.16 1021.34 1021.49 1021.60 1021.66
994.87 995.43 996.10 996.87 997.74 998.69 999.73 1000.85 1002.03 1003.26 1004.54 1005.84 1007.14 1008.42 1009.66 1010.84 1011.93 1012.94 1013.84 1014.64 1015.34 1015.94 1016.46 1016.91 1017.30 1017.65 1017.97 1018.26 1018.54 1018.80 1019.06 1019.31 1019.55 1019.79 1020.02 1020.25 1020.47 1020.68 1020.88 1021.06 1021.22 1021.35 1021.44 1021.49
995.23 995.97 996.80 997.69 998.65 999.67 1000.74 1001.86 1003.03 1004.23 1005.45 1006.69 1007.92 1009.13 1010.30 1011.39 1012.42 1013.36 1014.20 1014.95 1015.61 1016.19 1016.69 1017.14 1017.53 1017.89 1018.22 1018.52 1018.80 1019.06 1019.30 1019.53 1019.75 1019.95 1020.14 1020.32 1020.49 1020.65 1020.81 1020.95 1021.07 1021.18 1021.25 1021.29
995.97 996.86 997.81 998.80 999.83 1000.88 1001.95 1003.06 1004.18 1005.33 1006.48 1007.64 1008.78 1009.90 1010.96 1011.97 1012.91 1013.78 1014.56 1015.26 1015.88 1016.44 1016.94 1017.39 1017.79 1018.16 1018.50 1018.81 1019.10 1019.36 1019.59 1019.80 1019.98 1020.15 1020.29 1020.42 1020.54 1020.66 1020.77 1020.87 1020.97 1021.05 1021.11 1021.13
997.05 998.04 999.06 1000.09 1001.13 1002.18 1003.24 1004.30 1005.37 1006.44 1007.51 1008.58 1009.62 1010.63 1011.60 1012.52 1013.37 1014.16 1014.88 1015.54 1016.13 1016.67 1017.17 1017.62 1018.04 1018.42 1018.78 1019.10 1019.39 1019.65 1019.88 1020.07 1020.23 1020.36 1020.47 1020.56 1020.64 1020.72 1020.80 1020.88 1020.96 1021.02 1021.07 1021.09
998.34 999.35 1000.38 1001.40 1002.42 1003.44 1004.44 1005.44 1006.44 1007.43 1008.42 1009.40 1010.35 1011.27 1012.15 1012.98 1013.76 1014.48 1015.15 1015.77 1016.33 1016.85 1017.34 1017.79 1018.22 1018.62 1018.98 1019.31 1019.61 1019.87 1020.10 1020.28 1020.42 1020.54 1020.63 1020.71 1020.78 1020.85 1020.91 1020.99 1021.06 1021.13 1021.18 1021.21
999.67 1000.65 1001.63 1002.60 1003.56 1004.51 1005.45 1006.38 1007.31 1008.23 1009.15 1010.05 1010.93 1011.78 1012.59 1013.35 1014.07 1014.74 1015.36 1015.93 1016.46 1016.96 1017.43 1017.88 1018.30 1018.69 1019.06 1019.40 1019.70 1019.97 1020.19 1020.38 1020.53 1020.66 1020.76 1020.85 1020.93 1021.01 1021.10 1021.19 1021.28 1021.37 1021.44 1021.48
Thickness
5794 5802 5804 5803 5810 5817 5814 5811 5801 5807 5810 5817 5823 5820 5821 5824 5822 5819 5817 5815 5813 5809 5806 5803 5800 5798 5795 5793 5790 5787 5782 5778 5775 5772 5770 5767 5764 5762 5760 5757 5755 5752 5749 5748
5777 5793 5795 5794 5807 5810 5814 5814 5812 5811 5807 5824 5827 5822 5818 5820 5817 5812 5810 5809 5807 5804 5801 5797 5794 5792 5789 5786 5784 5781 5776 5772 5770 5767 5764 5761 5758 5756 5753 5751 5748 5746 5743 5741
5760 5779 5781 5775 5798 5805 5808 5816 5815 5803 5809 5820 5816 5813 5815 5816 5814 5809 5807 5805 5802 5799 5796 5793 5791 5787 5783 5781 5778 5774 5770 5767 5764 5760 5757 5754 5753 5749 5746 5743 5742 5739 5737 5735
5755 5756 5741 5779 5811 5814 5808 5809 5816 5812 5814 5815 5812 5811 5814 5813 5810 5806 5804 5801 5798 5796 5793 5790 5788 5783 5779 5776 5772 5767 5763 5760 5757 5754 5750 5748 5745 5741 5739 5736 5734 5732 5730 5729
5744 5741 5751 5779 5795 5802 5795 5791 5805 5804 5806 5810 5813 5810 5806 5809 5807 5803 5800 5797 5794 5793 5790 5786 5782 5778 5773 5768 5764 5760 5756 5753 5751 5748 5744 5740 5737 5735 5733 5730 5727 5726 5724 5722
5735 5728 5732 5762 5789 5802 5793 5770 5793 5796 5796 5800 5799 5784 5786 5800 5800 5796 5795 5793 5788 5787 5785 5778 5775 5772 5765 5760 5756 5752 5750 5747 5745 5742 5738 5735 5732 5729 5727 5724 5721 5720 5718 5716
5728 5725 5742 5771 5786 5788 5756 5754 5779 5786 5789 5790 5784 5782 5788 5794 5793 5792 5792 5789 5786 5782 5777 5772 5769 5764 5756 5753 5749 5747 5745 5742 5738 5736 5732 5730 5726 5724 5721 5718 5715 5712 5711 5709
5727 5720 5729 5769 5772 5760 5755 5771 5775 5776 5780 5779 5781 5784 5785 5785 5785 5785 5783 5781 5778 5772 5769 5766 5762 5756 5748 5744 5744 5742 5738 5734 5731 5728 5726 5724 5719 5716 5714 5710 5707 5704 5702 5700
5733 5730 5745 5758 5761 5764 5767 5762 5764 5767 5771 5771 5771 5773 5774 5775 5775 5775 5774 5772 5769 5763 5759 5757 5754 5749 5741 5739 5737 5734 5729 5726 5723 5721 5718 5716 5712 5709 5706 5703 5700 5698 5696 5693
5726 5730 5739 5749 5754 5756 5756 5754 5757 5760 5761 5761 5760 5762 5763 5764 5764 5763 5764 5762 5760 5755 5750 5747 5745 5742 5736 5733 5730 5725 5721 5718 5716 5713 5711 5709 5706 5703 5699 5696 5693 5691 5689 5687
5713 5722 5727 5733 5739 5744 5745 5749 5750 5751 5753 5752 5751 5752 5754 5753 5753 5752 5752 5752 5750 5745 5741 5738 5736 5733 5730 5727 5722 5717 5713 5710 5708 5706 5704 5701 5698 5695 5693 5689 5687 5684 5682 5680
5704 5715 5716 5720 5731 5735 5735 5736 5739 5740 5741 5743 5743 5743 5745 5745 5745 5744 5743 5742 5740 5736 5732 5729 5727 5724 5722 5720 5715 5710 5705 5702 5702 5700 5697 5695 5690 5686 5683 5681 5679 5676 5674 5672
5710 5716 5718 5721 5724 5726 5728 5729 5731 5732 5732 5733 5734 5736 5736 5735 5736 5735 5734 5732 5730 5728 5724 5721 5718 5716 5714 5712 5707 5702 5698 5697 5695 5693 5691 5688 5685 5680 5676 5672 5670 5667 5665 5663
5706 5706 5704 5709 5711 5717 5720 5723 5724 5724 5726 5727 5728 5728 5727 5726 5726 5726 5724 5723 5722 5720 5716 5713 5710 5707 5706 5704 5700 5695 5692 5690 5687 5686 5685 5683 5680 5676 5673 5669 5665 5662 5658 5655
5697 5699 5699 5701 5704 5707 5711 5712 5713 5714 5717 5718 5719 5718 5717 5715 5714 5716 5716 5716 5714 5711 5707 5704 5701 5699 5698 5696 5692 5688 5685 5683 5680 5680 5678 5676 5674 5672 5669 5666 5661 5657 5653 5648
5689 5691 5693 5692 5693 5697 5700 5702 5702 5704 5708 5708 5708 5707 5707 5708 5708 5708 5708 5707 5704 5701 5698 5696 5693 5692 5690 5687 5683 5681 5678 5676 5674 5673 5671 5669 5667 5664 5662 5659 5656 5652 5648 5644
5676 5678 5681 5683 5685 5688 5692 5695 5696 5698 5700 5700 5699 5700 5699 5698 5698 5697 5698 5698 5696 5694 5692 5689 5687 5684 5682 5679 5676 5674 5672 5670 5667 5666 5664 5662 5660 5657 5655 5652 5649 5646 5643 5640
5673 5676 5679 5681 5681 5683 5686 5688 5689 5691 5691 5692 5693 5692 5690 5688 5687 5687 5687 5688 5686 5685 5683 5682 5680 5676 5674 5671 5669 5667 5665 5663 5661 5659 5657 5655 5653 5651 5648 5645 5642 5639 5636 5631
5668 5671 5673 5676 5678 5678 5679 5680 5683 5685 5685 5685 5684 5682 5682 5680 5680 5680 5680 5678 5676 5674 5674 5674 5670 5668 5666 5664 5661 5660 5658 5656 5655 5652 5650 5646 5644 5643 5641 5638 5635 5633 5629 5625
5662 5664 5666 5668 5671 5671 5672 5673 5675 5676 5676 5677 5675 5673 5671 5670 5671 5672 5671 5669 5669 5669 5667 5665 5662 5661 5658 5656 5653 5652 5651 5649 5646 5644 5641 5639 5637 5635 5633 5631 5629 5626 5623 5620
5651 5654 5656 5659 5661 5663 5665 5666 5666 5666 5667 5668 5665 5663 5663 5663 5664 5663 5662 5661 5661 5661 5659 5655 5654 5651 5650 5647 5645 5645 5643 5641 5638 5635 5632 5631 5629 5628 5625 5622 5620 5618 5616 5613
5643 5645 5648 5650 5652 5653 5655 5657 5658 5658 5658 5658 5657 5656 5655 5655 5654 5655 5655 5653 5653 5650 5650 5648 5646 5642 5640 5638 5639 5638 5635 5633 5630 5627 5624 5622 5620 5618 5616 5613 5611 5609 5607 5606
5637 5639 5640 5642 5644 5646 5648 5649 5650 5650 5649 5649 5648 5648 5648 5648 5647 5646 5645 5646 5645 5641 5640 5639 5635 5632 5630 5631 5631 5629 5627 5625 5622 5619 5616 5614 5613 5611 5609 5607 5604 5602 5600 5597
5631 5632 5634 5637 5639 5639 5638 5640 5643 5643 5642 5642 5642 5643 5642 5640 5639 5641 5640 5638 5636 5633 5632 5628 5625 5624 5622 5624 5623 5622 5620 5617 5614 5611 5609 5606 5604 5603 5601 5599 5597 5595 5592 5590
5625 5627 5629 5630 5631 5632 5633 5635 5635 5635 5636 5636 5636 5637 5637 5635 5633 5633 5632 5630 5626 5624 5623 5620 5618 5616 5616 5617 5616 5614 5612 5610 5607 5604 5602 5599 5597 5595 5593 5591 5589 5587 5585 5583
5619 5621 5623 5625 5626 5627 5628 5628 5628 5628 5627 5627 5628 5629 5629 5628 5627 5624 5622 5621 5619 5616 5616 5614 5614 5610 5610 5610 5608 5606 5603 5601 5599 5596 5594 5591 5589 5587 5585 5582 5581 5580 5578 5576
5614 5615 5616 5618 5620 5621 5622 5622 5621 5621 5620 5620 5619 5620 5620 5620 5618 5616 5615 5613 5610 5609 5608 5607 5606 5604 5603 5601 5599 5596 5594 5592 5590 5588 5585 5583 5580 5578 5577 5574 5573 5572 5569 5568